Location: Buckenweiler
(49.0667°N, 10.2500°E)
Time: 18:06:47
(UTC+00:00)

Thor Agena Rocket - Pass Details

Date: 18 January 2026
Orbit: 755 x 801 km, 99.1° (Epoch: 18 February)

Event Time Altitude Azimuth Distance (km) Brightness Sun altitude
Rises 05:38:46 0° 18° (NNE) 3,247 6.8 -13.9°
Reaches altitude 10° 05:41:06 10° 21° (NNE) 2,322 6.1 -13.5°
Maximum altitude 05:46:11 63° 103° (ESE) 870 4.1 -12.7°
Drops below altitude 10° 05:51:17 10° 184° (S) 2,335 6.2 -11.9°
Sets 05:53:37 0° 188° (S) 3,266 6.9 -11.5°
